Appleton, WI

7:25 PM CST on December 06, 2019 (GMT -0600)
Outagamie County Regional

Weather History for KATW - August, 2019

Change the Weather History Date:

Thursday, August 8, 2019

  Actual Average Record
Temperature  
Mean Temperature 66 °F -  
Max Temperature 73 °F 80 °F 96 °F (2001)
Min Temperature 59 °F 60 °F 50 °F (1966)
Cooling Degree Days 1    
Growing Degree Days 16 (Base 50)    
Moisture  
Dew Point 54 °F    
Average Humidity 74    
Maximum Humidity 100    
Minimum Humidity 33    
Precipitation  
Precipitation 0.00 in - - ()
Sea Level Pressure  
Sea Level Pressure 29.81 in    
Wind  
Wind Speed 9 mph (WNW)    
Max Wind Speed 14 mph    
Max Gust Speed 20 mph    
Visibility 10 miles    
Events      
Averages and records for this station are not official NWS values.
T = Trace of Precipitation, MM = Missing Value Source: NWS Daily Summary

Daily Weather History Graph

Daily Weather History Graph

Search for Another Location

Airport or City:

Astronomy

Aug. 08, 2019 Rise Set
Actual Time 5:49 AM CDT 8:09 PM CDT
Civil Twilight 5:16 AM CDT 8:41 PM CDT
Nautical Twilight 4:36 AM CDT 9:21 PM CDT
Astronomical Twilight 3:51 AM CDT 10:06 PM CDT
Moon 2:45 PM CDT (8/8) 12:12 AM CDT (8/8)
Length of Visible Light 15h 24m
Length of Day
14h 20m
First Quarter, 60% of the Moon is Illuminated
Aug 8
First Quarter
Aug 15
Full
Aug 23
Last Quarter
Aug 30
New
Sep 5
First Quarter

Hourly Weather History & Observations

Time (CDT) Temp. Dew Point Humidity Pressure Visibility Wind Dir Wind Speed Gust Speed Precip Events Conditions
12:15 AM 64.4 °F 62.6 °F 94% 29.76 in 10.0 mi West 9.2 mph - N/A   Scattered Clouds
12:35 AM 62.6 °F 62.6 °F 100% 29.76 in 10.0 mi West 9.2 mph - N/A   Mostly Cloudy
12:55 AM 64.4 °F 62.6 °F 94% 29.76 in 10.0 mi West 10.4 mph - N/A   Mostly Cloudy
1:15 AM 62.6 °F 62.6 °F 100% 29.76 in 10.0 mi West 9.2 mph - N/A   Scattered Clouds
1:35 AM 62.6 °F 62.6 °F 100% 29.76 in 10.0 mi West 9.2 mph - N/A   Scattered Clouds
1:55 AM 62.6 °F 62.6 °F 100% 29.76 in 10.0 mi West 9.2 mph - N/A   Scattered Clouds
2:15 AM 62.6 °F 62.6 °F 100% 29.76 in 10.0 mi West 9.2 mph - N/A   Clear
2:35 AM 62.6 °F 62.6 °F 100% 29.76 in 10.0 mi West 8.1 mph - N/A   Clear
2:55 AM 62.6 °F 62.6 °F 100% 29.76 in 10.0 mi West 8.1 mph - N/A   Clear
3:15 AM 62.6 °F 62.6 °F 100% 29.76 in 10.0 mi West 8.1 mph - N/A   Clear
3:35 AM 60.8 °F 60.8 °F 100% 29.77 in 10.0 mi West 8.1 mph - N/A   Clear
3:55 AM 60.8 °F 60.8 °F 100% 29.78 in 10.0 mi West 8.1 mph - N/A   Clear
4:35 AM 60.8 °F 60.8 °F 100% 29.77 in 10.0 mi WNW 8.1 mph - N/A   Clear
4:55 AM 60.8 °F 60.8 °F 100% 29.77 in 10.0 mi WNW 6.9 mph - N/A   Clear
5:15 AM 60.8 °F 60.8 °F 100% 29.77 in 10.0 mi WNW 6.9 mph - N/A   Clear
5:20 AM 62.6 °F 62.6 °F 100% 29.77 in 10.0 mi WNW 6.9 mph - N/A   Scattered Clouds
5:45 AM 60.8 °F 60.8 °F 100% 29.77 in 10.0 mi WNW 8.1 mph - N/A   Scattered Clouds
6:45 AM 60.8 °F 60.8 °F 100% 29.79 in 10.0 mi WNW 8.1 mph - N/A   Scattered Clouds
7:45 AM 64.4 °F 60.8 °F 88% 29.81 in 10.0 mi NW 9.2 mph - N/A   Scattered Clouds
8:45 AM 66.2 °F 55.4 °F 68% 29.82 in 10.0 mi NNW 11.5 mph - N/A   Scattered Clouds
9:45 AM 68.0 °F 51.8 °F 56% 29.83 in 10.0 mi NW 9.2 mph - N/A   Scattered Clouds
10:45 AM 69.8 °F 48.2 °F 46% 29.85 in 10.0 mi NW 11.5 mph - N/A   Scattered Clouds
11:45 AM 71.6 °F 46.4 °F 41% 29.85 in 10.0 mi WNW 13.8 mph - N/A   Scattered Clouds
12:45 PM 71.6 °F 44.6 °F 38% 29.85 in 10.0 mi West 13.8 mph - N/A   Scattered Clouds
1:45 PM 73.4 °F 44.6 °F 36% 29.85 in 10.0 mi WNW 13.8 mph 19.6 mph N/A   Mostly Cloudy
2:45 PM 73.4 °F 42.8 °F 33% 29.85 in 10.0 mi WNW 11.5 mph - N/A   Mostly Cloudy
3:45 PM 73.4 °F 42.8 °F 33% 29.86 in 10.0 mi West 11.5 mph 17.3 mph N/A   Mostly Cloudy
4:45 PM 73.4 °F 42.8 °F 33% 29.85 in 10.0 mi WNW 10.4 mph 17.3 mph N/A   Mostly Cloudy
5:45 PM 73.4 °F 42.8 °F 33% 29.85 in 10.0 mi WNW 12.7 mph - N/A   Scattered Clouds
6:45 PM 71.6 °F 42.8 °F 35% 29.85 in 10.0 mi WNW 10.4 mph - N/A   Scattered Clouds
7:45 PM 66.2 °F 46.4 °F 49% 29.85 in 10.0 mi WNW 6.9 mph - N/A   Scattered Clouds
8:45 PM 64.4 °F 46.4 °F 52% 29.86 in 10.0 mi West 5.8 mph - N/A   Scattered Clouds
9:45 PM 62.6 °F 46.4 °F 55% 29.87 in 10.0 mi West 5.8 mph - N/A   Scattered Clouds
10:45 PM 60.8 °F 48.2 °F 63% 29.88 in 10.0 mi West 5.8 mph - N/A   Scattered Clouds
10:55 PM 59.0 °F 46.4 °F 63% 29.88 in 10.0 mi West 6.9 mph - N/A   Clear
11:15 PM 59.0 °F 46.4 °F 63% 29.89 in 10.0 mi West 6.9 mph - N/A   Clear
11:35 PM 59.0 °F 46.4 °F 63% 29.89 in 10.0 mi West 6.9 mph - N/A   Clear
11:55 PM 59.0 °F 46.4 °F 63% 29.89 in 10.0 mi West 6.9 mph - N/A   Clear